SCP
3 3 4 4 4 3 3 2 2 1 1 0 0 0 0 0 1 1 1 0 0 0 0 0 0 0 0 0 0 0 0 0 0 0 0 0 0 1
4 4 4 4 4 3 3 3 2 2 1 1 0 0 0 0 0 1 1 0 0 0 0 0 0 0 0 0 0 0 0 0 0 0 0 0 0 0
5 5 4 4 3 3 3 3 3 2 1 0 0 0 0 0 0 0 0 0 0 0 0 0 0 0 0 0 0 0 0 0 0 0 0 0 0 0
5 5 4 3 3 3 3 2 2 1 0 0 0 0 0 0 0 0 0 0 0 0 0 0 0 0 0 0 0 0 0 0 0 0 0 0 0 0
4 4 3 2 2 2 1 1 1 0 0 0 0 0 0 0 0 0 0 0 0 0 0 0 0 0 0 0 0 0 0 0 0 0 0 0 0 0
3 3 2 1 1 1 0 0 0 0 0 0 0 0 0 0 0 0 0 0 0 0 0 0 0 0 0 0 0 0 0 0 0 0 0 0 0 0
2 2 1 0 0 0 0 0 0 0 0 0 0 0 0 0 0 0 0 0 0 0 0 0 0 0 0 0 0 0 0 0 0 0 0 0 0 0
1 1 0 0 0 0 0 0 0 0 0 0 0 0 0 0 0 0 0 0 0 0 0 0 0 0 0 0 0 0 0 0 0 0 0 0 0 0
1 0 0 0 0 0 0 0 0 0 0 0 0 0 0 0 0 0 0 0 0 0 0 0 0 0 0 0 0 0 0 0 0 0 0 0 0 0
0 0 0 0 0 0 0 0 0 0 0 0 0 0 0 0 0 0 0 0 0 0 0 0 0 0 0 0 0 0 0 0 0 0 0 0 0 0
0 0 0 0 0 0 0 0 0 0 0 0 0 0 0 0 0 0 0 0 0 0 0 0 0 0 0 0 0 0 0 0 0 0 0 0 0 0
0 0 0 0 0 0 0 0 0 0 0 0 0 0 0 0 0 0 0 0 0 0 0 0 0 0 0 0 0 0 0 0 0 0 0 0 0 0
0 0 0 0 0 0 0 0 0 0 0 0 0 0 0 0 0 0 0 0 0 0 0 0 0 0 0 0 0 0 0 0 0 0 0 0 0 0
0 0 0 0 0 0 0 0 0 0 0 0 0 0 0 0 0 0 0 0 0 0 0 0 0 0 0 0 0 0 0 0 0 0 0 0 0 0
0 0 0 0 0 0 0 0 0 0 0 0 0 0 0 0 0 0 0 0 0 0 0 0 0 0 0 0 0 0 0 0 0 0 0 0 0 0
0 0 0 0 0 0 0 0 0 0 0 0 0 0 0 0 0 0 0 0 0 0 0 0 0 0 0 0 0 0 0 0 0 0 0 0 0 0
0 0 0 0 0 0 0 0 0 0 0 0 0 0 0 0 0 0 0 0 0 0 0 0 0 0 0 0 0 0 0 0 0 0 0 0 0 0
0 0 0 0 0 0 0 0 0 0 0 0 0 0 0 0 0 0 0 0 0 0 0 0 0 0 0 0 0 0 0 0 0 0 0 0 0 0
0 0 0 0 0 0 0 0 0 0 0 0 0 0 0 0 0 0 0 0 0 0 0 0 0 0 0 0 0 0 0 0 0 0 0 0 0 0
0 0 0 0 0 0 0 0 0 0 0 0 0 0 0 0 0 0 0 0 0 0 0 0 0 0 0 0 0 0 0 0 0 0 0 0 0 0
0 0 0 0 0 0 0 0 0 0 0 0 0 0 0 0 0 0 0 0 0 0 0 0 0 0 0 0 0 0 0 0 0 0 0 0 0 0
0 0 0 0 0 0 0 0 0 0 0 0 0 0 0 0 0 0 0 0 0 0 0 0 0 0 0 0 0 0 0 0 0 0 0 0 0 0
0 0 0 0 0 0 0 0 0 0 0 0 0 0 0 0 0 0 0 0 0 0 0 0 0 0 0 0 0 0 0 0 0 0 0 0 0 0
Wind_Speed
1 1 0 1 1 2 4 5 5 5 4 4 3 3 2 4 5 4 7 10 9 9 9 8 7 7 7 7 6 6 5 5 4 4 4 5 5 5
2 2 2 1 2 2 2 2 2 4 4 4 3 5 4 5 6 4 6 11 9 8 8 7 7 6 6 5 5 4 4 4 4 3 3 3 4 4
4 4 4 3 2 2 3 3 3 4 6 5 4 6 5 5 5 4 5 5 7 9 8 8 7 6 5 5 4 4 3 3 2 2 2 2 3 3
6 5 5 4 5 4 3 4 4 4 7 9 7 6 6 6 5 4 5 4 5 9 7 7 7 6 5 5 4 4 3 2 2 1 0 1 2 3
7 6 6 6 6 5 5 5 4 5 6 8 8 6 5 5 6 5 5 3 4 8 8 8 7 6 6 6 5 5 4 3 3 2 2 2 3 3
8 8 7 7 7 6 5 6 6 7 7 7 7 6 6 6 4 4 5 4 3 5 4 5 7 8 8 7 7 6 6 5 4 4 4 4 4 4
9 10 10 10 10 7 5 6 6 6 6 6 6 6 6 5 4 3 3 4 4 3 3 5 6 6 8 10 10 8 6 6 5 6 6 5 5 5
9 9 10 10 11 11 11 10 7 5 5 5 5 5 5 4 3 3 3 3 4 3 3 3 3 3 3 3 7 8 6 6 6 6 6 6 6 7
8 7 8 8 8 9 10 9 10 8 5 3 5 4 5 4 3 3 2 1 1 2 2 2 2 2 2 4 8 5 6 6 7 7 7 7 7 7
8 8 8 8 8 6 7 8 8 7 4 3 4 3 4 3 2 1 2 2 3 3 2 2 1 2 1 3 10 7 7 7 7 7 7 7 8 8
9 9 8 8 8 6 5 7 7 6 7 8 7 6 6 3 2 2 2 2 2 3 2 2 1 1 2 2 7 11 9 9 8 8 8 8 8 9
7 8 11 8 7 6 4 6 7 6 5 6 5 5 4 4 2 3 2 1 1 1 2 2 2 2 2 1 1 5 7 10 11 10 9 9 8 8
5 6 8 8 8 7 5 6 5 2 3 4 4 4 4 4 3 2 1 2 3 2 1 2 3 3 3 2 2 2 2 2 5 7 10 11 10 8
5 6 7 6 6 6 5 5 3 4 1 2 3 3 3 2 2 1 1 2 3 3 3 4 4 4 4 4 3 2 2 2 3 3 2 6 10 11
6 7 4 1 1 4 4 2 4 1 2 2 2 3 3 3 1 1 2 2 4 4 3 3 4 4 5 5 4 3 3 3 3 3 3 4 4 4
4 5 3 1 1 3 3 1 1 4 3 3 3 2 1 0 1 1 1 2 2 2 3 3 4 5 5 5 5 5 4 4 3 3 4 5 5 4
2 1 2 2 2 2 2 2 2 2 1 2 1 1 1 1 1 1 2 3 3 2 1 2 4 5 6 6 5 4 4 4 4 3 5 6 5 4
4 1 2 1 2 2 1 1 1 2 2 1 1 1 2 2 2 1 2 3 3 3 3 3 3 4 5 4 4 5 5 4 4 4 6 6 6 4
3 2 2 1 1 1 1 1 2 2 2 2 1 2 2 2 2 2 2 3 3 3 4 4 4 5 6 4 2 4 5 5 6 6 5 5 6 5
0 2 1 1 1 1 1 1 1 1 1 1 2 2 2 2 3 3 2 4 4 5 5 4 4 4 6 7 6 5 7 6 5 6 6 6 6 4
2 1 1 1 1 1 1 1 2 2 2 2 2 2 2 3 3 4 3 2 5 5 5 4 3 2 6 6 7 5 3 6 5 5 7 7 7 6
1 1 1 1 1 1 1 1 1 2 2 3 2 2 3 3 4 5 5 5 5 5 5 4 4 5 6 7 7 6 6 4 6 12 11 9 7 7
1 2 1 1 1 2 2 2 2 2 2 3 2 3 3 4 4 5 5 6 6 6 6 6 5 5 6 6 7 6 7 7 6 6 6 11 16 16
Wind_Direction
63 142 125 122 148 150 156 161 159 163 158 155 151 145 140 114 126 139 127 124 125 124 123 121 121 117 113 110 105 98 92 87 80 67 54 41 32 23
47 62 61 86 115 136 160 166 157 149 141 146 153 148 141 136 136 135 126 133 137 136 136 140 138 134 133 131 126 122 113 100 85 71 55 38 29 25
60 71 75 75 93 106 119 130 134 131 131 129 129 134 138 140 137 146 147 162 147 149 153 156 156 154 153 151 148 144 133 122 103 74 49 26 9 5
62 68 77 88 90 88 97 106 115 128 139 135 138 142 144 144 144 160 157 159 141 141 154 164 168 168 169 169 167 163 159 161 163 174 338 337 334 333
60 66 76 86 86 89 92 99 109 120 128 136 138 138 145 150 156 159 152 155 161 148 165 175 177 178 181 184 185 183 191 200 210 228 250 269 284 295
63 66 68 73 82 90 95 99 107 115 123 132 135 141 144 154 167 161 158 171 177 169 165 170 173 186 193 196 196 199 207 216 225 235 246 258 267 275
66 68 68 71 66 65 79 93 108 118 126 129 136 144 146 157 166 171 164 167 165 181 185 185 182 194 187 197 200 201 210 223 232 239 245 253 260 267
70 73 80 79 79 79 74 71 73 94 108 122 132 130 134 145 146 169 170 173 163 162 212 201 200 207 202 184 149 176 207 227 239 245 249 253 258 260
63 65 72 77 81 89 93 95 82 73 74 86 111 119 133 131 152 160 142 149 98 124 229 205 197 221 221 130 147 185 217 235 245 250 253 256 259 257
66 66 69 68 60 59 84 89 88 77 69 87 95 97 101 114 143 133 138 171 179 169 224 259 209 232 238 163 160 191 215 233 243 248 252 256 256 254
68 62 63 68 41 23 84 98 97 97 85 72 65 72 64 52 346 242 204 219 176 149 183 267 272 269 253 207 169 188 208 221 231 238 244 248 251 253
86 85 69 55 34 15 71 90 95 96 105 116 122 144 148 146 219 267 293 311 329 133 134 270 286 292 274 224 206 189 208 212 220 226 230 236 244 263
78 79 70 46 38 24 25 67 67 50 124 133 137 139 146 155 175 191 331 327 336 357 29 294 310 308 306 302 280 252 260 248 221 218 217 223 229 248
63 66 71 51 46 37 47 47 335 286 153 122 116 119 121 107 92 62 16 331 318 308 312 312 305 310 308 304 299 289 278 271 274 286 278 199 221 230
63 64 63 71 145 103 85 331 284 280 62 77 78 73 70 66 64 188 206 229 245 247 246 268 284 295 296 299 307 317 312 291 270 283 289 285 281 258
112 128 167 192 128 98 162 194 47 41 21 41 51 58 64 123 263 326 299 266 262 233 199 227 262 284 286 296 295 296 297 297 299 295 305 296 281 271
347 162 143 133 127 102 92 77 80 102 74 40 27 3 340 335 343 347 318 300 300 304 260 223 223 238 260 275 290 298 305 301 299 312 293 291 291 286
296 106 92 80 74 74 68 82 88 62 32 5 344 333 334 331 327 318 297 299 305 305 307 308 299 285 267 236 243 288 302 309 310 299 288 292 299 302
258 89 79 68 56 46 28 25 38 51 360 327 332 321 310 310 311 318 322 319 316 312 308 305 299 299 304 309 231 239 296 312 307 302 298 297 298 305
68 63 67 54 32 10 13 16 -0 358 323 327 330 313 308 306 306 308 316 328 318 310 303 301 310 324 324 322 315 282 228 270 301 307 309 304 297 279
43 46 36 12 5 354 348 342 325 324 332 311 302 297 300 298 305 307 312 320 289 293 303 312 347 270 279 277 281 289 277 210 247 281 300 301 304 300
8 6 13 351 326 314 302 291 283 281 272 263 276 287 291 296 299 299 308 306 298 301 304 301 286 269 272 280 290 295 296 283 233 228 246 262 295 312
350 332 307 273 267 272 284 310 308 296 289 292 287 284 291 294 296 295 295 295 300 304 301 298 296 289 290 291 291 294 296 293 286 268 245 218 227 242